sat.trackr.live / text

‹ back to catalog

STARLINK-34601

NORAD 65084 · 2025-167G

PAYLOAD ACTIVE UNKNOWN

§ Identity

Operator
Country
US
Launch date
2025-08-04
Launch site
AFETR
Launch vehicle
Mass (kg)
RCS (m²)

Purposes: comms

External: N2YO · Heavens-Above · Gunter

§ Orbital elements

Epoch: 2026-09-20T02:05:46.633056Z

Period
93.85 min
Inclination
53.1573°
Eccentricity
0.0000412
Mean motion
15.34394373 rev/d
Perigee alt
462.4 km
Apogee alt
463.0 km
Semi-major
6,840.9 km
B*
5.6258e-4
RAAN
195.8397°
Arg perigee
27.9663°
Mean anomaly
332.1362°
Rev number
6,334

§ Raw data

STARLINK-346011 65084U 25167G   26263.08734529  .00018676  00000+0  56258-3 0  99972 65084  53.1573 195.8397 0000412  27.9663 332.1362 15.34394373 63349

JSON: /api/v1/satellites/65084 · /tle

For live sub-satellite position, see the globe view (requires WebGL).

§ Visibility from observer

Set your observer location to see the next 7 days of passes ≥ 10°. The values pass through the URL so the page stays shareable.

No JS? Fill the form by hand. The geolocation button needs JavaScript.